This is the latest recevied weather packets stored in our database for station/object K9RJT. If no packets are shown the sender has not sent any weather packets the latest 10 day(s).
| Time | Temp. | Humidity | Pressure | Rain* | Wind** | Luminosity | Snow |
|---|---|---|---|---|---|---|---|
| 1778055572 | 10.56° C | 65% | 1012.4 hPa | 0 mm | - | 0 W/m² | - |
| 1778055271 | 10.56° C | 65% | 1011.8 hPa | 0 mm | - | 0 W/m² | - |
| 1778054968 | 11.11° C | 64% | 1012.3 hPa | 0 mm | - | 0 W/m² | - |
| 1778054664 | 11.67° C | 64% | 1012 hPa | 0 mm | - | 0 W/m² | - |
| 1778054362 | 11.67° C | 65% | 1012 hPa | 0 mm | - | 0 W/m² | - |
| 1778054060 | 11.67° C | 65% | 1011.8 hPa | 0 mm | - | 0 W/m² | - |
| 1778053756 | 11.67° C | 66% | 1011.8 hPa | 0 mm | - | 0 W/m² | - |
| 1778053454 | 11.67° C | 65% | 1011.8 hPa | 0 mm | - | 0 W/m² | - |
| 1778053151 | 12.22° C | 64% | 1012 hPa | 0 mm | - | 0 W/m² | - |
| 1778052849 | 12.22° C | 64% | 1011.7 hPa | 0 mm | - | 0 W/m² | - |
| 1778052546 | 11.67° C | 63% | 1011.8 hPa | 0 mm | - | 0 W/m² | - |
| 1778052243 | 11.67° C | 60% | 1011.6 hPa | 0 mm | - | 0 W/m² | - |
| 1778051940 | 12.22° C | 59% | 1011.7 hPa | 0 mm | - | 0 W/m² | - |
| 1778051639 | 12.78° C | 59% | 1012 hPa | 0 mm | - | 0 W/m² | - |
| 1778051335 | 12.78° C | 59% | 1011.5 hPa | 0 mm | - | 0 W/m² | - |
| 1778051032 | 12.78° C | 58% | 1011.3 hPa | 0 mm | - | 0 W/m² | - |
| 1778050729 | 12.78° C | 57% | 1011.4 hPa | 0 mm | - | 0 W/m² | - |
| 1778050427 | 12.78° C | 59% | 1011.4 hPa | 0 mm | - | 0 W/m² | - |
| 1778050123 | 12.78° C | 60% | 1011.6 hPa | 0 mm | - | 0 W/m² | - |
| 1778049818 | 12.78° C | 61% | 1011.5 hPa | 0 mm | - | 0 W/m² | - |
| 1778049516 | 12.78° C | 60% | 1011.6 hPa | 0 mm | - | 0 W/m² | - |
| 1778049214 | 13.33° C | 57% | 1011.5 hPa | 0 mm | - | 0 W/m² | - |
| 1778048912 | 12.78° C | 56% | 1011.5 hPa | 0 mm | - | 0 W/m² | - |
| 1778048609 | 12.78° C | 58% | 1011.3 hPa | 0 mm | - | 0 W/m² | - |
| 1778048305 | 13.33° C | 57% | 1011.1 hPa | 0 mm | - | 0 W/m² | - |
* Rain latest hour (hover to see other rain measurements)
** Current wind speed in m/s (hover to see current wind gust speed)